[[{"header":{"parameterUnit":"m.s-1","parameterCategory":1,"la1":30.2991,"la2":30.254,"lo1":-89.0895,"lo2":-89.0444,"dy":0.0017,"dx":0.0017,"nx":28,"ny":28,"refTime":"2023-08-14T03:00:00:Z","depth":0,"parameterNumber":2,"parameterNumberName":"U-component_of_WINDS"},"data":[0,0,0,0,0,0,0,0,0,0,0,0,0,0,0,0,0,0,0,0,0,0,0,0,0,0,0,0,0,0,0,0,0,0,0,0,0,0,0,0,0,0,0,0,0,0,0,0,0,0,0,0,0,0,0,0,0,0,2.4286,2.4287,0,2.4395,2.4397,2.4398,2.4372,2.437,2.4367,2.4365,2.4486,2.4491,2.4496,0,0,0,0,0,0,0,0,0,0,0,0,0,2.4065,2.4069,2.4286,2.4287,2.4289,2.4395,2.4397,2.4398,2.4372,2.4369,2.4367,2.4364,2.4484,2.449,2.4497,0,0,0,0,0,0,0,0,0,0,0,0,0,2.4166,2.407,2.4286,2.4288,2.429,2.4395,2.4397,2.4399,2.4373,2.4369,2.4366,2.4363,2.4482,2.449,2.4497,2.461,0,0,2.4521,2.4525,0,0,0,0,0,0,0,0,2.4161,2.4175,2.4287,2.4288,2.429,2.4366,2.4363,2.447,2.4373,2.4341,2.4365,2.4362,2.4449,2.446,2.4487,2.4615,2.462,2.4522,2.4527,2.453,2.4532,0,0,0,0,0,0,0,2.4154,2.417,2.433,2.4288,2.429,2.4287,2.4298,2.4383,2.4412,2.4344,2.4342,2.4355,2.445,2.448,2.449,2.4622,2.4522,2.4529,2.4533,2.4537,2.4853,2.4856,0,0,0,0,0,0,2.4144,2.4164,2.4326,2.4333,2.4216,2.4294,2.4306,2.4345,2.4411,2.4418,2.4358,2.4353,2.4468,2.4481,2.4494,2.4633,2.453,2.4537,2.4542,2.4849,2.4854,2.4858,0,0,0,0,0,0,2.4139,2.4159,2.4322,2.4248,2.4269,2.4301,2.4345,2.4349,2.4379,2.4421,2.4428,2.4383,2.4466,2.4483,2.4582,2.4637,2.4541,2.4548,2.4845,2.4851,2.4856,2.491,0,0,0,0,0,0,2.4133,2.4157,2.4197,2.4249,2.4272,2.4404,2.4349,2.4354,2.4392,2.4387,2.4446,2.4453,2.4465,2.457,2.4589,2.4646,2.4554,2.484,2.4847,2.4854,2.4904,2.4917,2.4928,0,0,0,0,0,2.4125,2.4209,2.4199,2.4219,2.4323,2.4407,2.4421,2.443,2.4396,2.4439,2.4467,2.4451,2.4627,2.458,2.4602,2.4662,2.4837,2.4845,2.4853,2.4898,2.4914,2.4928,0,0,0,0,0,0,2.4165,2.4216,2.4206,2.4308,2.4354,2.4403,2.4457,2.4447,2.4505,2.4498,2.451,2.4524,2.4625,2.4653,2.46,2.4776,2.4728,2.4741,2.4754,2.477,2.4782,2.4775,2.456,0,0,0,0,0,2.4186,2.4247,2.4289,2.4376,2.4399,2.4424,2.4461,2.4464,2.4513,2.4533,2.4567,2.4618,2.4685,2.4728,2.4792,2.4907,2.4922,2.4959,2.4972,2.4981,2.4994,2.5061,2.5079,2.4885,2.4885,2.4885,0,0,2.4229,2.4265,2.4303,2.4385,2.442,2.4487,2.444,2.4512,2.4563,2.4544,2.4639,2.4667,2.4724,2.4833,2.4882,2.4859,2.505,2.4992,2.5,2.5007,2.5072,2.509,2.5106,2.4891,2.489,2.4889,0,0,2.4344,2.4374,2.4452,2.4488,2.4542,2.4559,2.4577,2.4629,2.4646,2.4741,2.4729,2.4792,2.4905,2.4948,2.4984,2.5118,2.5108,2.5138,2.5204,2.527,2.5285,2.5299,2.535,2.5368,2.515,2.515,2.515,0,2.4392,2.4489,2.4494,2.4567,2.4606,2.459,2.4671,2.4707,2.478,2.4809,2.4781,2.4926,2.4963,2.5083,2.5116,2.5144,2.517,2.5133,2.5282,2.5296,2.5309,2.5358,2.5377,2.5154,2.5153,2.5153,2.5152,0,2.4548,2.4616,2.4673,2.4742,2.4786,2.4863,2.4884,2.4929,2.4929,2.495,2.505,2.5094,2.5168,2.5196,2.5197,2.5318,2.5302,2.5278,2.523,2.5331,2.5377,2.5396,2.5159,2.5157,2.5156,2.5155,0,0,2.4691,2.4762,2.4783,2.4816,2.4875,2.493,2.5008,2.5078,2.5119,2.517,2.524,2.5337,2.5316,2.5358,2.5364,2.5421,2.5529,2.539,2.5392,2.5418,2.567,2.569,2.5711,2.5521,2.5525,2.5528,2.5666,0,2.4813,2.4948,2.4956,2.508,2.5146,2.5132,2.5201,2.5247,2.5269,2.5331,2.5357,2.5427,2.5392,2.5417,2.5473,2.5504,2.558,2.5493,2.559,2.5593,2.5579,2.5735,2.5756,2.5884,2.5684,2.5687,2.5689,0,2.4973,2.5029,2.5159,2.5212,2.524,2.5301,2.5368,2.5425,2.5479,2.5492,2.5539,2.5538,2.5623,2.557,2.5689,2.563,2.567,2.5692,2.5697,2.5709,2.5649,2.5754,2.5925,2.5945,2.5717,2.5715,2.5713,0,2.5069,2.5176,2.5269,2.5297,2.536,2.5404,2.5433,2.5483,2.5526,2.5586,2.5614,2.5684,2.5723,2.5778,2.5798,2.5756,2.5918,2.5866,2.5935,2.5935,2.5972,2.597,2.6154,2.5992,2.5992,2.5991,2.5991,0,2.5207,2.5288,2.5313,2.537,2.5463,2.5472,2.5564,2.5591,2.5636,2.5702,2.5695,2.5757,2.5777,2.5844,2.586,2.5959,2.5976,2.5991,2.5995,2.5994,2.5992,2.6022,2.6015,2.5997,2.5995,2.5994,2.5994,0,2.533,2.5349,2.545,2.5502,2.5517,2.5583,2.5629,2.5687,2.5707,2.5791,2.5811,2.5846,2.5924,2.5948,2.6043,2.6054,2.6171,2.6166,2.6153,2.6154,2.6223,2.6218,2.6436,2.6467,2.6281,2.6283,2.6285,0,2.5418,2.548,2.5538,2.5581,2.5611,2.5679,2.5722,2.5736,2.5782,2.585,2.59,2.5977,2.604,2.6167,2.6203,2.6277,2.6275,2.6346,2.6286,2.6284,2.6281,2.6278,2.6286,2.6359,2.6361,2.6362,2.6363,0,2.5574,2.5581,2.5642,2.5709,2.5761,2.5814,2.5866,2.5901,2.5923,2.5976,2.6055,2.6104,2.6201,2.6279,2.6355,2.6388,2.6382,2.6382,2.6402,2.6403,2.6394,2.6404,2.6187,2.6377,2.6376,2.6375,2.6374,2.6374,2.5685,2.5741,2.5791,2.5861,2.5901,2.595,2.6007,2.6036,2.6101,2.6179,2.6184,2.6271,2.6327,2.6427,2.6465,2.6536,2.6516,2.6544,2.6552,2.656,2.6568,2.638,2.6549,2.6549,2.6549,2.6548,2.6548,0,2.5843,2.5875,2.5939,2.6011,2.6068,2.6052,2.611,2.6159,2.6235,2.6286,2.6348,2.6441,2.6518,2.656,2.6637,2.6686,2.6686,2.6707,2.6705,2.6714,2.6579,2.6555,2.6706,2.6706,2.6706,2.6706,2.6706,2.6706,2.5932,2.6027,2.6041,2.6157,2.6189,2.6273,2.6307,2.6354,2.6395,2.6499,2.6562,2.6588,2.6637,2.6718,2.6789,2.68,2.6831,2.6855,2.6864,2.6739,2.6723,2.6707,2.6685,2.686,2.6861,2.6993,2.6994,2.6995]},{"header":{"parameterUnit":"m.s-1","parameterCategory":1,"la1":30.2991,"la2":30.254,"lo1":-89.0895,"lo2":-89.0444,"dy":0.0017,"dx":0.0017,"nx":28,"ny":28,"refTime":"2023-08-14T03:00:00:Z","depth":0,"parameterNumber":3,"parameterNumberName":"V-component_of_WINDS"},"data":[0,0,0,0,0,0,0,0,0,0,0,0,0,0,0,0,0,0,0,0,0,0,0,0,0,0,0,0,0,0,0,0,0,0,0,0,0,0,0,0,0,0,0,0,0,0,0,0,0,0,0,0,0,0,0,0,0,0,2.3946,2.3947,0,2.4072,2.4074,2.4075,2.4096,2.4095,2.4094,2.4093,2.4219,2.4223,2.4227,0,0,0,0,0,0,0,0,0,0,0,0,0,2.3716,2.372,2.3946,2.3947,2.3949,2.4072,2.4074,2.4076,2.4096,2.4095,2.4093,2.4092,2.4217,2.4222,2.4228,0,0,0,0,0,0,0,0,0,0,0,0,0,2.3826,2.3722,2.3946,2.3974,2.3978,2.4072,2.4074,2.4076,2.4096,2.4095,2.4093,2.4091,2.4216,2.4222,2.4228,2.4302,0,0,2.4249,2.4251,0,0,0,0,0,0,0,0,2.382,2.3835,2.3968,2.3972,2.3977,2.4067,2.4039,2.4152,2.4097,2.4051,2.4093,2.4091,2.4169,2.418,2.4207,2.4308,2.4313,2.4249,2.4253,2.4256,2.4258,0,0,0,0,0,0,0,2.3813,2.383,2.3996,2.397,2.3975,2.3979,2.3992,2.4061,2.4118,2.4055,2.4057,2.4072,2.4171,2.42,2.421,2.4315,2.4249,2.4255,2.4259,2.4261,2.4477,2.4478,0,0,0,0,0,0,2.38,2.3823,2.3992,2.4,2.3893,2.3984,2.4,2.4039,2.4117,2.4127,2.4073,2.4072,2.419,2.4202,2.4214,2.4302,2.4256,2.4262,2.4266,2.4475,2.4477,2.4479,0,0,0,0,0,0,2.3795,2.3815,2.3987,2.3912,2.3934,2.399,2.4034,2.4043,2.4072,2.4131,2.414,2.4093,2.4189,2.4205,2.4279,2.4307,2.4265,2.4271,2.4473,2.4476,2.4478,2.4479,0,0,0,0,0,0,2.3789,2.3813,2.3843,2.3912,2.3938,2.4051,2.4036,2.4046,2.4084,2.4084,2.4152,2.4161,2.4189,2.4269,2.4285,2.4315,2.4276,2.4471,2.4474,2.4477,2.4477,2.4482,2.4486,0,0,0,0,0,2.378,2.3839,2.3845,2.3865,2.3977,2.4053,2.4067,2.4099,2.4086,2.4115,2.4152,2.4159,2.4301,2.4276,2.4295,2.4327,2.4469,2.4473,2.4477,2.4475,2.4481,2.4486,0,0,0,0,0,0,2.3772,2.3849,2.3856,2.3939,2.3989,2.4056,2.4094,2.4104,2.4158,2.4156,2.4192,2.4207,2.4278,2.431,2.4281,2.4399,2.4384,2.4392,2.4376,2.4382,2.4386,2.4376,2.4282,0,0,0,0,0,2.378,2.3836,2.39,2.3967,2.3992,2.4038,2.4073,2.4093,2.4145,2.4166,2.4209,2.4259,2.4314,2.435,2.4405,2.4482,2.4495,2.4513,2.4517,2.452,2.4526,2.4565,2.4573,2.4492,2.4492,2.4492,0,0,2.3796,2.3845,2.3879,2.3966,2.4008,2.4063,2.4056,2.4116,2.4157,2.4175,2.4247,2.428,2.4337,2.4412,2.4447,2.4441,2.4551,2.4525,2.4528,2.4532,2.457,2.4578,2.4584,2.4495,2.4494,2.4494,0,0,2.3855,2.3899,2.3958,2.3998,2.406,2.4091,2.4104,2.4169,2.4192,2.4264,2.4278,2.4326,2.4422,2.4461,2.4493,2.4562,2.4569,2.4579,2.4601,2.4638,2.4645,2.465,2.4672,2.4679,2.4585,2.4585,2.4585,0,2.3867,2.3953,2.3986,2.4045,2.4081,2.41,2.4158,2.4196,2.4272,2.4295,2.4288,2.4405,2.4446,2.4528,2.4544,2.4571,2.4585,2.4571,2.4641,2.4648,2.4653,2.4674,2.4682,2.4585,2.4585,2.4585,2.4585,0,2.3963,2.4022,2.4062,2.4135,2.4176,2.4234,2.4273,2.431,2.4325,2.4355,2.4426,2.4475,2.4538,2.4559,2.4575,2.4642,2.4636,2.4635,2.4619,2.4661,2.4681,2.4689,2.4586,2.4586,2.4586,2.4585,0,0,2.4021,2.411,2.4123,2.4155,2.4223,2.4268,2.4325,2.4387,2.4416,2.4467,2.4514,2.4593,2.459,2.4627,2.4647,2.468,2.4727,2.4674,2.4676,2.468,2.48,2.4799,2.4808,2.4732,2.4734,2.4735,2.4794,0,2.4085,2.4189,2.4219,2.4305,2.4358,2.4375,2.4424,2.4469,2.4498,2.4545,2.4576,2.463,2.4625,2.4646,2.468,2.4714,2.4751,2.4711,2.4773,2.4775,2.4757,2.4819,2.482,2.4873,2.4802,2.4804,2.4805,0,2.4175,2.4227,2.4318,2.4376,2.4399,2.4443,2.45,2.4546,2.4596,2.4614,2.4653,2.467,2.4726,2.4708,2.4785,2.4757,2.4784,2.4804,2.4807,2.4812,2.4791,2.4824,2.4891,2.4898,2.4818,2.4817,2.4816,0,2.4204,2.4297,2.4363,2.4389,2.446,2.4489,2.4519,2.4568,2.4602,2.4651,2.4673,2.4728,2.4757,2.4798,2.4827,2.4812,2.49,2.4886,2.4914,2.4914,2.4932,2.493,2.5001,2.4952,2.4952,2.4952,2.4952,0,2.4271,2.4326,2.4376,2.4416,2.4477,2.4509,2.4567,2.4598,2.464,2.4685,2.4703,2.4744,2.4781,2.4826,2.4849,2.4907,2.4921,2.4935,2.494,2.4933,2.493,2.495,2.4946,2.4954,2.4954,2.4953,2.4953,0,2.4314,2.435,2.4422,2.4482,2.4498,2.4539,2.4589,2.4627,2.4656,2.4711,2.4726,2.477,2.4824,2.4857,2.4925,2.494,2.5003,2.5008,2.4986,2.4988,2.5014,2.501,2.5099,2.5111,2.5056,2.5056,2.5057,0,2.4354,2.4396,2.4459,2.4491,2.4521,2.4572,2.4606,2.4638,2.4672,2.4731,2.4761,2.4816,2.4861,2.4945,2.4982,2.5033,2.5038,2.5065,2.5046,2.5035,2.5035,2.5031,2.5034,2.5068,2.5069,2.5069,2.5069,0,2.4419,2.4434,2.4484,2.4538,2.4579,2.4623,2.4667,2.4691,2.4731,2.4768,2.4823,2.4858,2.4926,2.4979,2.5033,2.5061,2.5071,2.5075,2.5084,2.5076,2.506,2.5066,2.4993,2.5073,2.5072,2.5072,2.5072,2.5072,2.446,2.4497,2.4547,2.46,2.4636,2.4676,2.4714,2.4746,2.4793,2.4852,2.4867,2.4924,2.4969,2.5042,2.5072,2.5114,2.5111,2.5124,2.5127,2.513,2.5129,2.5055,2.5125,2.5125,2.5125,2.5124,2.5124,0,2.4524,2.4557,2.4605,2.4666,2.4707,2.4713,2.4761,2.4794,2.4844,2.4886,2.493,2.4991,2.5041,2.5081,2.5132,2.5158,2.5163,2.517,2.5168,2.5173,2.5131,2.5117,2.5165,2.5165,2.5165,2.5165,2.5165,2.5165,2.4563,2.4624,2.4644,2.4722,2.4754,2.481,2.4836,2.4872,2.4906,2.4973,2.5015,2.5041,2.5081,2.5134,2.518,2.519,2.5207,2.5212,2.5223,2.5182,2.5177,2.5173,2.516,2.5216,2.5216,2.5262,2.5262,2.5262]}]]